Time,TemperatureF,DewpointF,PressureIn,WindDirection,WindDirectionDegrees,WindSpeedMPH,WindSpeedGustMPH,Humidity,HourlyPrecipIn,Conditions,Clouds,dailyrainin,SoftwareType,DateUTC
2013-08-10 00:01:00,77.0,75.8,29.88,SSE,158,2.0,4.0,96,0.00,,,0.00,Weather View 32 v70,2013-08-10 04:01:00,
2013-08-10 00:02:00,77.0,75.8,29.88,South,180,2.0,4.0,96,0.00,,,0.00,Weather View 32 v70,2013-08-10 04:02:00,
2013-08-10 00:07:00,77.0,75.8,29.88,South,180,1.0,4.0,96,0.00,,,0.00,Weather View 32 v70,2013-08-10 04:07:00,
2013-08-10 00:12:00,77.0,75.8,29.88,South,180,1.0,5.0,96,0.00,,,0.00,Weather View 32 v70,2013-08-10 04:12:00,
2013-08-10 00:17:00,77.0,75.8,29.88,SSE,158,1.0,5.0,96,0.00,,,0.00,Weather View 32 v70,2013-08-10 04:17:00,
2013-08-10 00:22:00,77.0,75.8,29.88,WSW,248,1.0,6.0,96,0.00,,,0.00,Weather View 32 v70,2013-08-10 04:22:00,
2013-08-10 00:27:00,77.0,75.8,29.88,South,180,2.0,6.0,96,0.00,,,0.00,Weather View 32 v70,2013-08-10 04:27:00,
2013-08-10 00:32:00,77.0,76.1,29.88,South,180,2.0,6.0,97,0.00,,,0.00,Weather View 32 v70,2013-08-10 04:32:00,
2013-08-10 00:37:00,77.0,76.1,29.88,South,180,1.0,6.0,97,0.00,,,0.00,Weather View 32 v70,2013-08-10 04:37:00,
2013-08-10 00:42:00,77.0,76.1,29.88,South,180,1.0,6.0,97,0.00,,,0.00,Weather View 32 v70,2013-08-10 04:42:00,
2013-08-10 00:47:00,77.0,76.1,29.88,WSW,248,1.0,6.0,97,0.00,,,0.00,Weather View 32 v70,2013-08-10 04:47:00,
2013-08-10 00:52:00,77.0,76.1,29.88,South,180,1.0,6.0,97,0.00,,,0.00,Weather View 32 v70,2013-08-10 04:52:00,
2013-08-10 00:57:00,77.0,76.1,29.88,South,180,1.0,6.0,97,0.00,,,0.00,Weather View 32 v70,2013-08-10 04:57:00,
2013-08-10 01:02:00,77.0,76.1,29.88,WSW,248,3.0,6.0,97,0.00,,,0.00,Weather View 32 v70,2013-08-10 05:02:00,
2013-08-10 01:07:00,77.0,76.4,29.88,South,180,1.0,6.0,98,0.00,,,0.00,Weather View 32 v70,2013-08-10 05:07:00,
2013-08-10 01:12:00,77.0,76.4,29.88,SSE,158,1.0,6.0,98,0.00,,,0.00,Weather View 32 v70,2013-08-10 05:12:00,
2013-08-10 01:17:00,77.0,76.4,29.88,South,180,3.0,6.0,98,0.00,,,0.00,Weather View 32 v70,2013-08-10 05:17:00,
2013-08-10 01:22:00,77.0,76.7,29.88,South,180,3.0,6.0,99,0.00,,,0.00,Weather View 32 v70,2013-08-10 05:22:00,
2013-08-10 01:27:00,77.0,76.7,29.88,South,180,2.0,6.0,99,0.00,,,0.00,Weather View 32 v70,2013-08-10 05:27:00,
2013-08-10 01:32:00,77.0,76.7,29.88,WSW,248,3.0,6.0,99,0.00,,,0.00,Weather View 32 v70,2013-08-10 05:32:00,
2013-08-10 01:37:00,77.0,76.7,29.88,South,180,5.0,6.0,99,0.00,,,0.00,Weather View 32 v70,2013-08-10 05:37:00,
2013-08-10 01:42:00,77.0,76.7,29.88,WSW,248,3.0,6.0,99,0.00,,,0.00,Weather View 32 v70,2013-08-10 05:42:00,
2013-08-10 01:47:00,77.0,76.7,29.88,WSW,248,0.0,6.0,99,0.00,,,0.00,Weather View 32 v70,2013-08-10 05:47:00,
2013-08-10 01:52:00,77.0,76.7,29.88,WSW,248,1.0,6.0,99,0.00,,,0.00,Weather View 32 v70,2013-08-10 05:52:00,
2013-08-10 01:57:00,77.0,77.0,29.89,South,180,2.0,6.0,100,0.00,,,0.00,Weather View 32 v70,2013-08-10 05:57:00,
2013-08-10 02:02:00,77.0,77.0,29.89,WSW,248,0.0,6.0,100,0.00,,,0.00,Weather View 32 v70,2013-08-10 06:02:00,
2013-08-10 02:07:00,77.0,77.0,29.89,South,180,0.0,6.0,100,0.00,,,0.00,Weather View 32 v70,2013-08-10 06:07:00,
2013-08-10 02:12:00,77.0,77.0,29.89,South,180,0.0,6.0,100,0.00,,,0.00,Weather View 32 v70,2013-08-10 06:12:00,
2013-08-10 02:17:00,77.0,77.0,29.89,South,180,1.0,6.0,100,0.00,,,0.00,Weather View 32 v70,2013-08-10 06:17:00,
2013-08-10 02:22:00,77.0,77.0,29.89,SSE,158,0.0,6.0,100,0.00,,,0.00,Weather View 32 v70,2013-08-10 06:22:00,
2013-08-10 02:27:00,77.0,77.0,29.89,SSE,158,1.0,6.0,100,0.00,,,0.00,Weather View 32 v70,2013-08-10 06:27:00,
2013-08-10 02:32:00,77.0,77.0,29.88,South,180,0.0,6.0,100,0.00,,,0.00,Weather View 32 v70,2013-08-10 06:32:00,
2013-08-10 02:37:00,76.0,76.0,29.88,South,180,1.0,6.0,100,0.00,,,0.00,Weather View 32 v70,2013-08-10 06:37:00,
2013-08-10 02:42:00,76.0,76.0,29.88,South,180,2.0,5.0,100,0.00,,,0.00,Weather View 32 v70,2013-08-10 06:42:00,
2013-08-10 02:47:00,76.0,76.0,29.88,SSE,158,2.0,5.0,100,0.00,,,0.00,Weather View 32 v70,2013-08-10 06:47:00,
2013-08-10 02:52:00,76.0,76.0,29.88,South,180,1.0,5.0,100,0.00,,,0.00,Weather View 32 v70,2013-08-10 06:52:00,
2013-08-10 02:57:00,76.0,76.0,29.88,South,180,2.0,5.0,100,0.00,,,0.00,Weather View 32 v70,2013-08-10 06:57:00,
2013-08-10 03:02:00,76.0,76.0,29.88,South,180,5.0,6.0,100,0.00,,,0.00,Weather View 32 v70,2013-08-10 07:02:00,
2013-08-10 03:07:00,76.0,76.0,29.87,South,180,4.0,6.0,100,0.00,,,0.00,Weather View 32 v70,2013-08-10 07:07:00,
2013-08-10 03:12:00,76.0,76.0,29.87,SSE,158,2.0,6.0,100,0.00,,,0.00,Weather View 32 v70,2013-08-10 07:12:00,
2013-08-10 03:17:00,76.0,76.0,29.87,SSE,158,1.0,6.0,100,0.00,,,0.00,Weather View 32 v70,2013-08-10 07:17:00,
2013-08-10 03:22:00,76.0,76.0,29.87,South,180,0.0,6.0,100,0.00,,,0.00,Weather View 32 v70,2013-08-10 07:22:00,
2013-08-10 03:27:00,76.0,76.0,29.87,WSW,248,3.0,6.0,100,0.00,,,0.00,Weather View 32 v70,2013-08-10 07:27:00,
2013-08-10 03:32:00,76.0,76.0,29.87,WSW,248,3.0,6.0,100,0.00,,,0.00,Weather View 32 v70,2013-08-10 07:32:00,
2013-08-10 03:37:00,76.0,76.0,29.88,South,180,0.0,6.0,100,0.00,,,0.00,Weather View 32 v70,2013-08-10 07:37:00,
2013-08-10 03:42:00,76.0,76.0,29.87,WSW,248,2.0,6.0,100,0.00,,,0.00,Weather View 32 v70,2013-08-10 07:42:00,
2013-08-10 03:47:00,76.0,76.0,29.87,SSE,158,1.0,6.0,100,0.00,,,0.00,Weather View 32 v70,2013-08-10 07:47:00,
2013-08-10 03:52:00,76.0,76.0,29.87,South,180,2.0,6.0,100,0.00,,,0.00,Weather View 32 v70,2013-08-10 07:52:00,
2013-08-10 03:57:00,76.0,76.0,29.87,South,180,2.0,6.0,100,0.00,,,0.00,Weather View 32 v70,2013-08-10 07:57:00,
2013-08-10 04:02:00,76.0,76.0,29.87,South,180,2.0,6.0,100,0.00,,,0.00,Weather View 32 v70,2013-08-10 08:02:00,
2013-08-10 04:07:00,76.0,76.0,29.87,South,180,1.0,6.0,100,0.00,,,0.00,Weather View 32 v70,2013-08-10 08:07:00,
2013-08-10 04:12:00,76.0,76.0,29.87,South,180,0.0,6.0,100,0.00,,,0.00,Weather View 32 v70,2013-08-10 08:12:00,
2013-08-10 04:17:00,76.0,76.0,29.88,South,180,0.0,6.0,100,0.00,,,0.00,Weather View 32 v70,2013-08-10 08:17:00,
2013-08-10 04:22:00,76.0,76.0,29.88,SSE,158,0.0,6.0,100,0.00,,,0.00,Weather View 32 v70,2013-08-10 08:22:00,
2013-08-10 04:27:00,76.0,76.0,29.88,WSW,248,1.0,6.0,100,0.00,,,0.00,Weather View 32 v70,2013-08-10 08:27:00,
2013-08-10 04:32:00,76.0,76.0,29.88,South,180,0.0,6.0,100,0.00,,,0.00,Weather View 32 v70,2013-08-10 08:32:00,
2013-08-10 04:37:00,76.0,76.0,29.88,South,180,2.0,6.0,100,0.00,,,0.00,Weather View 32 v70,2013-08-10 08:37:00,
2013-08-10 04:42:00,76.0,76.0,29.88,SSE,158,1.0,6.0,100,0.00,,,0.00,Weather View 32 v70,2013-08-10 08:42:00,
2013-08-10 04:47:00,76.0,76.0,29.88,South,180,3.0,6.0,100,0.00,,,0.00,Weather View 32 v70,2013-08-10 08:47:00,
2013-08-10 04:52:00,76.0,76.0,29.88,South,180,2.0,6.0,100,0.00,,,0.00,Weather View 32 v70,2013-08-10 08:52:00,
2013-08-10 04:57:00,76.0,76.0,29.88,South,180,2.0,6.0,100,0.00,,,0.00,Weather View 32 v70,2013-08-10 08:57:00,
2013-08-10 05:02:00,76.0,76.0,29.88,South,180,4.0,6.0,100,0.00,,,0.00,Weather View 32 v70,2013-08-10 09:02:00,
2013-08-10 05:07:00,76.0,76.0,29.88,South,180,2.0,6.0,100,0.00,,,0.00,Weather View 32 v70,2013-08-10 09:07:00,
2013-08-10 05:12:00,76.0,76.0,29.88,South,180,3.0,6.0,100,0.00,,,0.00,Weather View 32 v70,2013-08-10 09:12:00,
2013-08-10 05:17:00,76.0,76.0,29.88,South,180,5.0,6.0,100,0.00,,,0.00,Weather View 32 v70,2013-08-10 09:17:00,
2013-08-10 05:22:00,76.0,76.0,29.88,SSE,158,0.0,6.0,100,0.00,,,0.00,Weather View 32 v70,2013-08-10 09:22:00,
2013-08-10 05:27:00,76.0,76.0,29.88,WSW,248,1.0,6.0,100,0.00,,,0.00,Weather View 32 v70,2013-08-10 09:27:00,
2013-08-10 05:32:00,76.0,76.0,29.88,South,180,3.0,6.0,100,0.00,,,0.00,Weather View 32 v70,2013-08-10 09:32:00,
2013-08-10 05:37:00,76.0,76.0,29.88,WSW,248,2.0,6.0,100,0.00,,,0.00,Weather View 32 v70,2013-08-10 09:37:00,
2013-08-10 05:42:00,76.0,76.0,29.88,South,180,2.0,6.0,100,0.00,,,0.00,Weather View 32 v70,2013-08-10 09:42:00,
2013-08-10 05:47:00,75.0,75.0,29.88,South,180,3.0,6.0,100,0.00,,,0.00,Weather View 32 v70,2013-08-10 09:47:00,
2013-08-10 05:52:00,75.0,75.0,29.88,SSE,158,1.0,6.0,100,0.00,,,0.00,Weather View 32 v70,2013-08-10 09:52:00,
2013-08-10 05:57:00,75.0,75.0,29.88,South,180,1.0,8.0,100,0.00,,,0.00,Weather View 32 v70,2013-08-10 09:57:00,
2013-08-10 06:02:00,75.0,75.0,29.88,South,180,5.0,8.0,100,0.00,,,0.00,Weather View 32 v70,2013-08-10 10:02:00,
2013-08-10 06:07:00,75.0,75.0,29.88,South,180,1.0,8.0,100,0.00,,,0.00,Weather View 32 v70,2013-08-10 10:07:00,
2013-08-10 06:12:00,75.0,75.0,29.88,WSW,248,3.0,8.0,100,0.00,,,0.00,Weather View 32 v70,2013-08-10 10:12:00,
2013-08-10 06:17:00,75.0,75.0,29.88,ENE,68,1.0,8.0,100,0.00,,,0.00,Weather View 32 v70,2013-08-10 10:17:00,
2013-08-10 06:22:00,75.0,75.0,29.88,South,180,2.0,8.0,100,0.00,,,0.00,Weather View 32 v70,2013-08-10 10:22:00,
2013-08-10 06:27:00,75.0,75.0,29.89,South,180,2.0,8.0,100,0.00,,,0.00,Weather View 32 v70,2013-08-10 10:27:00,
2013-08-10 06:32:00,75.0,75.0,29.89,SSE,158,0.0,8.0,100,0.00,,,0.00,Weather View 32 v70,2013-08-10 10:32:00,
2013-08-10 06:37:00,75.0,75.0,29.89,South,180,2.0,8.0,100,0.00,,,0.00,Weather View 32 v70,2013-08-10 10:37:00,
2013-08-10 06:42:00,75.0,75.0,29.89,WSW,248,5.0,8.0,100,0.00,,,0.00,Weather View 32 v70,2013-08-10 10:42:00,
2013-08-10 06:47:00,75.0,75.0,29.89,South,180,3.0,8.0,100,0.00,,,0.00,Weather View 32 v70,2013-08-10 10:47:00,
2013-08-10 06:52:00,75.0,75.0,29.89,East,90,5.0,8.0,100,0.00,,,0.00,Weather View 32 v70,2013-08-10 10:52:00,
2013-08-10 06:57:00,75.0,75.0,29.89,South,180,6.0,8.0,100,0.00,,,0.00,Weather View 32 v70,2013-08-10 10:57:00,
2013-08-10 07:02:00,75.0,75.0,29.89,SSE,158,3.0,8.0,100,0.00,,,0.00,Weather View 32 v70,2013-08-10 11:02:00,
2013-08-10 07:07:00,75.0,75.0,29.89,WSW,248,2.0,9.0,100,0.00,,,0.00,Weather View 32 v70,2013-08-10 11:07:00,
2013-08-10 07:12:00,75.0,75.0,29.89,South,180,1.0,9.0,100,0.00,,,0.00,Weather View 32 v70,2013-08-10 11:12:00,
2013-08-10 07:17:00,75.0,75.0,29.89,South,180,3.0,9.0,100,0.00,,,0.00,Weather View 32 v70,2013-08-10 11:17:00,
2013-08-10 07:22:00,75.0,75.0,29.90,South,180,4.0,9.0,100,0.00,,,0.00,Weather View 32 v70,2013-08-10 11:22:00,
2013-08-10 07:27:00,76.0,76.0,29.90,South,180,2.0,9.0,100,0.00,,,0.00,Weather View 32 v70,2013-08-10 11:27:00,
2013-08-10 07:32:00,76.0,76.0,29.90,South,180,2.0,9.0,100,0.00,,,0.00,Weather View 32 v70,2013-08-10 11:32:00,
2013-08-10 07:37:00,76.0,76.0,29.90,SSE,158,0.0,9.0,100,0.00,,,0.00,Weather View 32 v70,2013-08-10 11:37:00,
2013-08-10 07:42:00,76.0,76.0,29.90,SSE,158,1.0,9.0,100,0.00,,,0.00,Weather View 32 v70,2013-08-10 11:42:00,
2013-08-10 07:47:00,76.0,76.0,29.90,WSW,248,1.0,9.0,100,0.00,,,0.00,Weather View 32 v70,2013-08-10 11:47:00,
2013-08-10 07:52:00,76.0,76.0,29.90,WSW,248,2.0,9.0,100,0.00,,,0.00,Weather View 32 v70,2013-08-10 11:52:00,
2013-08-10 07:57:00,76.0,76.0,29.90,South,180,7.0,9.0,100,0.00,,,0.00,Weather View 32 v70,2013-08-10 11:57:00,
2013-08-10 08:02:00,76.0,76.0,29.91,WSW,248,1.0,11.0,100,0.00,,,0.00,Weather View 32 v70,2013-08-10 12:02:00,
2013-08-10 08:07:00,76.0,76.0,29.90,South,180,6.0,11.0,100,0.00,,,0.00,Weather View 32 v70,2013-08-10 12:07:00,
2013-08-10 08:12:00,76.0,76.0,29.91,South,180,6.0,11.0,100,0.00,,,0.00,Weather View 32 v70,2013-08-10 12:12:00,
2013-08-10 08:17:00,77.0,77.0,29.91,WSW,248,7.0,11.0,100,0.00,,,0.00,Weather View 32 v70,2013-08-10 12:17:00,
2013-08-10 08:22:00,77.0,77.0,29.91,South,180,5.0,11.0,100,0.00,,,0.00,Weather View 32 v70,2013-08-10 12:22:00,
2013-08-10 08:27:00,77.0,77.0,29.90,South,180,3.0,11.0,100,0.00,,,0.00,Weather View 32 v70,2013-08-10 12:27:00,
2013-08-10 08:32:00,77.0,77.0,29.90,South,180,3.0,11.0,100,0.00,,,0.00,Weather View 32 v70,2013-08-10 12:32:00,
2013-08-10 08:37:00,77.0,77.0,29.91,South,180,1.0,11.0,100,0.00,,,0.00,Weather View 32 v70,2013-08-10 12:37:00,
2013-08-10 08:43:00,78.0,78.0,29.91,SSE,158,3.0,14.0,100,0.00,,,0.00,Weather View 32 v70,2013-08-10 12:43:00,
2013-08-10 08:48:00,78.0,78.0,29.91,South,180,2.0,14.0,100,0.00,,,0.00,Weather View 32 v70,2013-08-10 12:48:00,
2013-08-10 08:53:00,78.0,78.0,29.91,South,180,3.0,14.0,100,0.00,,,0.00,Weather View 32 v70,2013-08-10 12:53:00,
2013-08-10 08:58:00,78.0,78.0,29.90,East,90,3.0,14.0,100,0.00,,,0.00,Weather View 32 v70,2013-08-10 12:58:00,
2013-08-10 09:03:00,79.0,79.0,29.90,South,180,8.0,14.0,100,0.00,,,0.00,Weather View 32 v70,2013-08-10 13:03:00,
2013-08-10 09:08:00,79.0,79.0,29.90,South,180,5.0,14.0,100,0.00,,,0.00,Weather View 32 v70,2013-08-10 13:08:00,
2013-08-10 09:13:00,79.0,79.0,29.90,WSW,248,5.0,14.0,100,0.00,,,0.00,Weather View 32 v70,2013-08-10 13:13:00,
2013-08-10 09:18:00,79.0,78.7,29.91,South,180,3.0,14.0,99,0.00,,,0.00,Weather View 32 v70,2013-08-10 13:18:00,
2013-08-10 09:23:00,80.0,79.4,29.91,South,180,6.0,14.0,98,0.00,,,0.00,Weather View 32 v70,2013-08-10 13:23:00,
2013-08-10 09:28:00,80.0,79.1,29.90,South,180,3.0,14.0,97,0.00,,,0.00,Weather View 32 v70,2013-08-10 13:28:00,
2013-08-10 09:33:00,80.0,79.1,29.90,South,180,3.0,14.0,97,0.00,,,0.00,Weather View 32 v70,2013-08-10 13:33:00,
2013-08-10 09:38:00,80.0,78.8,29.91,West,270,3.0,14.0,96,0.00,,,0.00,Weather View 32 v70,2013-08-10 13:38:00,
2013-08-10 09:43:00,81.0,79.4,29.91,WSW,248,2.0,10.0,95,0.00,,,0.00,Weather View 32 v70,2013-08-10 13:43:00,
2013-08-10 09:48:00,82.0,80.1,29.90,South,180,5.0,10.0,94,0.00,,,0.00,Weather View 32 v70,2013-08-10 13:48:00,
2013-08-10 09:53:00,82.0,79.8,29.90,WSW,248,4.0,10.0,93,0.00,,,0.00,Weather View 32 v70,2013-08-10 13:53:00,
2013-08-10 09:58:00,82.0,79.4,29.90,WSW,248,2.0,10.0,92,0.00,,,0.00,Weather View 32 v70,2013-08-10 13:58:00,
2013-08-10 10:03:00,82.0,79.1,29.90,South,180,5.0,10.0,91,0.00,,,0.00,Weather View 32 v70,2013-08-10 14:03:00,
2013-08-10 10:08:00,83.0,79.7,29.90,WSW,248,3.0,10.0,90,0.00,,,0.00,Weather View 32 v70,2013-08-10 14:08:00,
2013-08-10 10:13:00,83.0,79.4,29.91,SSE,158,2.0,10.0,89,0.00,,,0.00,Weather View 32 v70,2013-08-10 14:13:00,
2013-08-10 10:18:00,84.0,80.0,29.91,South,180,5.0,10.0,88,0.00,,,0.00,Weather View 32 v70,2013-08-10 14:18:00,
2013-08-10 10:23:00,84.0,79.7,29.91,WSW,248,7.0,11.0,87,0.00,,,0.00,Weather View 32 v70,2013-08-10 14:23:00,
2013-08-10 10:28:00,84.0,79.3,29.91,WSW,248,5.0,12.0,86,0.00,,,0.00,Weather View 32 v70,2013-08-10 14:28:00,
2013-08-10 10:33:00,85.0,80.0,29.90,West,270,5.0,12.0,85,0.00,,,0.00,Weather View 32 v70,2013-08-10 14:33:00,
2013-08-10 10:38:00,85.0,79.6,29.90,SSE,158,1.0,14.0,84,0.00,,,0.00,Weather View 32 v70,2013-08-10 14:38:00,
2013-08-10 10:43:00,86.0,79.8,29.91,WSW,248,6.0,14.0,82,0.00,,,0.00,Weather View 32 v70,2013-08-10 14:43:00,
2013-08-10 10:48:00,86.0,79.1,29.90,NNW,338,5.0,14.0,80,0.00,,,0.00,Weather View 32 v70,2013-08-10 14:48:00,
2013-08-10 10:53:00,88.0,80.2,29.91,WSW,248,5.0,14.0,78,0.00,,,0.00,Weather View 32 v70,2013-08-10 14:53:00,
2013-08-10 10:58:00,88.0,79.8,29.91,WSW,248,7.0,14.0,77,0.00,,,0.00,Weather View 32 v70,2013-08-10 14:58:00,
2013-08-10 11:03:00,89.0,80.4,29.91,WSW,248,8.0,14.0,76,0.00,,,0.00,Weather View 32 v70,2013-08-10 15:03:00,
2013-08-10 11:08:00,89.0,80.4,29.91,WSW,248,8.0,14.0,76,0.00,,,0.00,Weather View 32 v70,2013-08-10 15:08:00,
2013-08-10 11:13:00,89.0,79.2,29.91,WSW,248,3.0,14.0,73,0.00,,,0.00,Weather View 32 v70,2013-08-10 15:13:00,
2013-08-10 11:18:00,90.0,79.7,29.91,South,180,6.0,14.0,72,0.00,,,0.00,Weather View 32 v70,2013-08-10 15:18:00,
2013-08-10 11:23:00,90.0,79.7,29.91,South,180,3.0,14.0,72,0.00,,,0.00,Weather View 32 v70,2013-08-10 15:23:00,
2013-08-10 11:28:00,90.0,79.7,29.91,South,180,5.0,14.0,72,0.00,,,0.00,Weather View 32 v70,2013-08-10 15:28:00,
2013-08-10 11:33:00,90.0,79.7,29.91,NNW,338,5.0,14.0,72,0.00,,,0.00,Weather View 32 v70,2013-08-10 15:33:00,
2013-08-10 11:38:00,90.0,79.7,29.91,WSW,248,3.0,13.0,72,0.00,,,0.00,Weather View 32 v70,2013-08-10 15:38:00,
2013-08-10 11:43:00,89.0,78.3,29.91,NNW,338,1.0,13.0,71,0.00,,,0.00,Weather View 32 v70,2013-08-10 15:43:00,
2013-08-10 11:48:00,90.0,79.3,29.91,South,180,6.0,13.0,71,0.00,,,0.00,Weather View 32 v70,2013-08-10 15:48:00,
2013-08-10 11:53:00,90.0,79.3,29.91,ENE,68,1.0,13.0,71,0.00,,,0.00,Weather View 32 v70,2013-08-10 15:53:00,
2013-08-10 11:58:00,90.0,78.8,29.91,NNW,338,3.0,13.0,70,0.00,,,0.00,Weather View 32 v70,2013-08-10 15:58:00,
2013-08-10 12:03:00,90.0,78.8,29.91,NNW,338,3.0,13.0,70,0.00,,,0.00,Weather View 32 v70,2013-08-10 16:03:00,
2013-08-10 12:08:00,91.0,80.2,29.90,SSE,158,6.0,13.0,71,0.00,,,0.00,Weather View 32 v70,2013-08-10 16:08:00,
2013-08-10 12:13:00,91.0,79.8,29.90,South,180,3.0,13.0,70,0.00,,,0.00,Weather View 32 v70,2013-08-10 16:13:00,
2013-08-10 12:18:00,91.0,79.4,29.90,West,270,5.0,13.0,69,0.00,,,0.00,Weather View 32 v70,2013-08-10 16:18:00,
2013-08-10 12:23:00,91.0,78.9,29.90,South,180,7.0,13.0,68,0.00,,,0.00,Weather View 32 v70,2013-08-10 16:23:00,
2013-08-10 12:28:00,91.0,78.9,29.90,NNW,338,1.0,13.0,68,0.00,,,0.00,Weather View 32 v70,2013-08-10 16:28:00,
2013-08-10 12:33:00,91.0,79.4,29.90,NNW,338,3.0,13.0,69,0.00,,,0.00,Weather View 32 v70,2013-08-10 16:33:00,
2013-08-10 12:38:00,91.0,78.9,29.90,WSW,248,5.0,13.0,68,0.00,,,0.00,Weather View 32 v70,2013-08-10 16:38:00,
2013-08-10 12:43:00,91.0,78.0,29.90,WSW,248,8.0,13.0,66,0.00,,,0.00,Weather View 32 v70,2013-08-10 16:43:00,
2013-08-10 12:48:00,91.0,78.5,29.89,WSW,248,8.0,13.0,67,0.00,,,0.00,Weather View 32 v70,2013-08-10 16:48:00,
2013-08-10 12:53:00,91.0,78.5,29.89,WSW,248,8.0,13.0,67,0.00,,,0.00,Weather View 32 v70,2013-08-10 16:53:00,
2013-08-10 12:58:00,90.0,78.0,29.89,WSW,248,3.0,13.0,68,0.00,,,0.00,Weather View 32 v70,2013-08-10 16:58:00,
2013-08-10 13:03:00,91.0,79.4,29.89,WSW,248,5.0,13.0,69,0.00,,,0.00,Weather View 32 v70,2013-08-10 17:03:00,
2013-08-10 13:08:00,91.0,79.4,29.89,West,270,7.0,13.0,69,0.00,,,0.00,Weather View 32 v70,2013-08-10 17:08:00,
2013-08-10 13:13:00,90.0,77.5,29.89,WSW,248,8.0,13.0,67,0.00,,,0.00,Weather View 32 v70,2013-08-10 17:13:00,
2013-08-10 13:18:00,91.0,79.4,29.88,WSW,248,3.0,13.0,69,0.00,,,0.00,Weather View 32 v70,2013-08-10 17:18:00,
2013-08-10 13:23:00,91.0,78.9,29.88,South,180,3.0,13.0,68,0.00,,,0.00,Weather View 32 v70,2013-08-10 17:23:00,
2013-08-10 13:28:00,91.0,78.5,29.88,WSW,248,5.0,13.0,67,0.00,,,0.00,Weather View 32 v70,2013-08-10 17:28:00,
2013-08-10 13:33:00,91.0,78.9,29.87,WSW,248,3.0,13.0,68,0.00,,,0.00,Weather View 32 v70,2013-08-10 17:33:00,
2013-08-10 13:38:00,92.0,78.9,29.87,WSW,248,5.0,13.0,66,0.00,,,0.00,Weather View 32 v70,2013-08-10 17:38:00,
2013-08-10 13:43:00,92.0,78.5,29.87,WSW,248,3.0,13.0,65,0.00,,,0.00,Weather View 32 v70,2013-08-10 17:43:00,
2013-08-10 13:48:00,93.0,79.9,29.87,South,180,4.0,13.0,66,0.00,,,0.00,Weather View 32 v70,2013-08-10 17:48:00,
2013-08-10 13:53:00,93.0,79.0,29.87,East,90,2.0,13.0,64,0.00,,,0.00,Weather View 32 v70,2013-08-10 17:53:00,
2013-08-10 13:58:00,93.0,79.0,29.87,South,180,4.0,13.0,64,0.00,,,0.00,Weather View 32 v70,2013-08-10 17:58:00,
2013-08-10 14:03:00,93.0,79.0,29.86,WSW,248,4.0,13.0,64,0.00,,,0.00,Weather View 32 v70,2013-08-10 18:03:00,
2013-08-10 14:08:00,93.0,79.4,29.86,WSW,248,8.0,13.0,65,0.00,,,0.00,Weather View 32 v70,2013-08-10 18:08:00,
2013-08-10 14:13:00,93.0,78.5,29.86,WSW,248,3.0,13.0,63,0.00,,,0.00,Weather View 32 v70,2013-08-10 18:13:00,
2013-08-10 14:18:00,92.0,77.5,29.86,WSW,248,3.0,11.0,63,0.00,,,0.00,Weather View 32 v70,2013-08-10 18:18:00,
2013-08-10 14:23:00,92.0,78.5,29.86,WSW,248,4.0,11.0,65,0.00,,,0.00,Weather View 32 v70,2013-08-10 18:23:00,
2013-08-10 14:28:00,92.0,78.5,29.86,South,180,6.0,11.0,65,0.00,,,0.00,Weather View 32 v70,2013-08-10 18:28:00,
2013-08-10 14:33:00,93.0,79.0,29.86,WSW,248,6.0,11.0,64,0.00,,,0.00,Weather View 32 v70,2013-08-10 18:33:00,
2013-08-10 14:38:00,93.0,79.0,29.86,WSW,248,5.0,11.0,64,0.00,,,0.00,Weather View 32 v70,2013-08-10 18:38:00,
2013-08-10 14:43:00,92.0,78.0,29.86,WSW,248,5.0,13.0,64,0.00,,,0.00,Weather View 32 v70,2013-08-10 18:43:00,
2013-08-10 14:48:00,92.0,78.5,29.86,WSW,248,6.0,13.0,65,0.00,,,0.00,Weather View 32 v70,2013-08-10 18:48:00,
2013-08-10 14:54:00,92.0,78.0,29.86,South,180,1.0,13.0,64,0.00,,,0.00,Weather View 32 v70,2013-08-10 18:54:00,
2013-08-10 14:59:00,92.0,78.0,29.86,SSE,158,4.0,14.0,64,0.00,,,0.00,Weather View 32 v70,2013-08-10 18:59:00,
2013-08-10 15:04:00,92.0,78.5,29.86,West,270,6.0,14.0,65,0.00,,,0.00,Weather View 32 v70,2013-08-10 19:04:00,
2013-08-10 15:09:00,92.0,78.5,29.86,South,180,4.0,15.0,65,0.00,,,0.00,Weather View 32 v70,2013-08-10 19:09:00,
2013-08-10 15:14:00,92.0,78.5,29.86,West,270,5.0,15.0,65,0.00,,,0.00,Weather View 32 v70,2013-08-10 19:14:00,
2013-08-10 15:19:00,92.0,78.0,29.86,WSW,248,7.0,15.0,64,0.00,,,0.00,Weather View 32 v70,2013-08-10 19:19:00,
2013-08-10 15:24:00,92.0,78.0,29.86,South,180,2.0,15.0,64,0.00,,,0.00,Weather View 32 v70,2013-08-10 19:24:00,
2013-08-10 15:29:00,92.0,78.5,29.86,West,270,8.0,15.0,65,0.00,,,0.00,Weather View 32 v70,2013-08-10 19:29:00,
2013-08-10 15:34:00,93.0,78.5,29.86,East,90,3.0,15.0,63,0.00,,,0.00,Weather View 32 v70,2013-08-10 19:34:00,
2013-08-10 15:39:00,93.0,78.5,29.86,South,180,7.0,15.0,63,0.00,,,0.00,Weather View 32 v70,2013-08-10 19:39:00,
2013-08-10 15:44:00,92.0,77.0,29.86,WSW,248,10.0,15.0,62,0.00,,,0.00,Weather View 32 v70,2013-08-10 19:44:00,
2013-08-10 15:49:00,92.0,77.5,29.86,SSE,158,1.0,15.0,63,0.00,,,0.00,Weather View 32 v70,2013-08-10 19:49:00,
2013-08-10 15:54:00,92.0,78.0,29.85,WSW,248,5.0,15.0,64,0.00,,,0.00,Weather View 32 v70,2013-08-10 19:54:00,
2013-08-10 15:59:00,92.0,78.0,29.85,South,180,5.0,15.0,64,0.00,,,0.00,Weather View 32 v70,2013-08-10 19:59:00,
2013-08-10 16:04:00,93.0,79.0,29.85,ENE,68,2.0,15.0,64,0.00,,,0.00,Weather View 32 v70,2013-08-10 20:04:00,
2013-08-10 16:09:00,93.0,78.5,29.85,South,180,3.0,13.0,63,0.00,,,0.00,Weather View 32 v70,2013-08-10 20:09:00,
2013-08-10 16:14:00,93.0,78.5,29.85,South,180,2.0,13.0,63,0.00,,,0.00,Weather View 32 v70,2013-08-10 20:14:00,
2013-08-10 16:19:00,93.0,78.5,29.85,South,180,6.0,11.0,63,0.00,,,0.00,Weather View 32 v70,2013-08-10 20:19:00,
2013-08-10 16:25:00,92.0,77.5,29.84,WSW,248,3.0,11.0,63,0.00,,,0.00,Weather View 32 v70,2013-08-10 20:25:00,
2013-08-10 16:30:00,91.0,77.5,29.85,South,180,0.0,11.0,65,0.00,,,0.00,Weather View 32 v70,2013-08-10 20:30:00,
2013-08-10 16:35:00,91.0,78.0,29.85,West,270,5.0,11.0,66,0.00,,,0.00,Weather View 32 v70,2013-08-10 20:35:00,
2013-08-10 16:40:00,91.0,78.0,29.84,WSW,248,5.0,11.0,66,0.00,,,0.00,Weather View 32 v70,2013-08-10 20:40:00,
2013-08-10 16:45:00,92.0,78.5,29.84,SSE,158,3.0,11.0,65,0.00,,,0.00,Weather View 32 v70,2013-08-10 20:45:00,
2013-08-10 16:50:00,91.0,77.1,29.84,WSW,248,4.0,11.0,64,0.00,,,0.00,Weather View 32 v70,2013-08-10 20:50:00,
2013-08-10 16:55:00,92.0,78.5,29.84,WSW,248,3.0,11.0,65,0.00,,,0.00,Weather View 32 v70,2013-08-10 20:55:00,
2013-08-10 17:00:00,92.0,78.5,29.84,South,180,7.0,11.0,65,0.00,,,0.00,Weather View 32 v70,2013-08-10 21:00:00,
2013-08-10 17:05:00,91.0,78.0,29.84,North,0,3.0,12.0,66,0.00,,,0.00,Weather View 32 v70,2013-08-10 21:05:00,
2013-08-10 17:10:00,91.0,78.0,29.83,WSW,248,5.0,12.0,66,0.00,,,0.00,Weather View 32 v70,2013-08-10 21:10:00,
2013-08-10 17:15:00,90.0,78.0,29.83,NNW,338,3.0,12.0,68,0.00,,,0.00,Weather View 32 v70,2013-08-10 21:15:00,
2013-08-10 17:20:00,89.0,75.6,29.84,NNW,338,3.0,12.0,65,0.00,,,0.00,Weather View 32 v70,2013-08-10 21:20:00,
2013-08-10 17:25:00,88.0,75.6,29.84,NNW,338,5.0,12.0,67,0.00,,,0.00,Weather View 32 v70,2013-08-10 21:25:00,
2013-08-10 17:30:00,87.0,74.2,29.84,NNW,338,5.0,12.0,66,0.00,,,0.00,Weather View 32 v70,2013-08-10 21:30:00,
2013-08-10 17:35:00,86.0,74.2,29.85,NNW,338,6.0,12.0,68,0.00,,,0.00,Weather View 32 v70,2013-08-10 21:35:00,
2013-08-10 17:41:00,85.0,73.2,29.85,North,0,7.0,12.0,68,0.00,,,0.00,Weather View 32 v70,2013-08-10 21:41:00,
2013-08-10 17:46:00,85.0,73.6,29.86,NNW,338,5.0,12.0,69,0.00,,,0.00,Weather View 32 v70,2013-08-10 21:46:00,
2013-08-10 17:51:00,85.0,74.5,29.86,West,270,6.0,12.0,71,0.00,,,0.00,Weather View 32 v70,2013-08-10 21:51:00,
2013-08-10 17:56:00,85.0,74.5,29.86,West,270,3.0,12.0,71,0.00,,,0.00,Weather View 32 v70,2013-08-10 21:56:00,
2013-08-10 18:01:00,85.0,74.5,29.85,WSW,248,3.0,12.0,71,0.00,,,0.00,Weather View 32 v70,2013-08-10 22:01:00,
2013-08-10 18:06:00,85.0,74.5,29.86,NNW,338,9.0,12.0,71,0.00,,,0.00,Weather View 32 v70,2013-08-10 22:06:00,
2013-08-10 18:11:00,85.0,74.5,29.86,West,270,4.0,12.0,71,0.00,,,0.00,Weather View 32 v70,2013-08-10 22:11:00,
2013-08-10 18:16:00,84.0,74.0,29.85,NNW,338,8.0,12.0,72,0.00,,,0.00,Weather View 32 v70,2013-08-10 22:16:00,
2013-08-10 18:21:00,84.0,74.0,29.86,North,0,3.0,12.0,72,0.00,,,0.00,Weather View 32 v70,2013-08-10 22:21:00,
2013-08-10 18:26:00,84.0,74.0,29.86,NNW,338,4.0,12.0,72,0.00,,,0.00,Weather View 32 v70,2013-08-10 22:26:00,
2013-08-10 18:31:00,84.0,74.4,29.87,NNW,338,1.0,11.0,73,0.00,,,0.00,Weather View 32 v70,2013-08-10 22:31:00,
2013-08-10 18:36:00,84.0,74.4,29.87,North,0,1.0,10.0,73,0.00,,,0.00,Weather View 32 v70,2013-08-10 22:36:00,
2013-08-10 18:41:00,83.0,73.4,29.88,ENE,68,3.0,10.0,73,0.00,,,0.00,Weather View 32 v70,2013-08-10 22:41:00,
2013-08-10 18:46:00,83.0,73.8,29.89,East,90,2.0,10.0,74,0.00,,,0.00,Weather View 32 v70,2013-08-10 22:46:00,
2013-08-10 18:51:00,83.0,73.8,29.89,East,90,0.0,10.0,74,0.00,,,0.00,Weather View 32 v70,2013-08-10 22:51:00,
2013-08-10 18:56:00,83.0,74.2,29.89,South,180,2.0,10.0,75,0.00,,,0.00,Weather View 32 v70,2013-08-10 22:56:00,
2013-08-10 19:01:00,83.0,74.6,29.88,West,270,0.0,10.0,76,0.00,,,0.00,Weather View 32 v70,2013-08-10 23:01:00,
2013-08-10 19:06:00,83.0,75.0,29.88,ENE,68,2.0,10.0,77,0.00,,,0.00,Weather View 32 v70,2013-08-10 23:06:00,
2013-08-10 19:11:00,83.0,75.0,29.88,ENE,68,0.0,10.0,77,0.00,,,0.00,Weather View 32 v70,2013-08-10 23:11:00,
2013-08-10 19:16:00,83.0,75.4,29.88,ENE,68,0.0,10.0,78,0.00,,,0.00,Weather View 32 v70,2013-08-10 23:16:00,
2013-08-10 19:21:00,82.0,74.0,29.88,North,0,0.0,7.0,77,0.00,,,0.00,Weather View 32 v70,2013-08-10 23:21:00,
2013-08-10 19:26:00,82.0,74.0,29.88,North,0,0.0,6.0,77,0.00,,,0.00,Weather View 32 v70,2013-08-10 23:26:00,
2013-08-10 19:31:00,82.0,74.0,29.88,North,0,1.0,5.0,77,0.00,,,0.00,Weather View 32 v70,2013-08-10 23:31:00,
2013-08-10 19:36:00,82.0,74.0,29.88,ENE,68,1.0,5.0,77,0.00,,,0.00,Weather View 32 v70,2013-08-10 23:36:00,
2013-08-10 19:41:00,82.0,74.4,29.89,North,0,1.0,5.0,78,0.00,,,0.00,Weather View 32 v70,2013-08-10 23:41:00,
2013-08-10 19:46:00,82.0,74.4,29.89,NNW,338,1.0,5.0,78,0.00,,,0.00,Weather View 32 v70,2013-08-10 23:46:00,
2013-08-10 19:51:00,82.0,74.8,29.88,NNW,338,1.0,5.0,79,0.00,,,0.00,Weather View 32 v70,2013-08-10 23:51:00,
2013-08-10 19:56:00,82.0,74.8,29.88,North,0,1.0,5.0,79,0.00,,,0.00,Weather View 32 v70,2013-08-10 23:56:00,
2013-08-10 20:01:00,82.0,74.8,29.89,ENE,68,0.0,5.0,79,0.00,,,0.00,Weather View 32 v70,2013-08-11 00:01:00,
2013-08-10 20:06:00,82.0,74.8,29.89,ENE,68,0.0,5.0,79,0.00,,,0.00,Weather View 32 v70,2013-08-11 00:06:00,
2013-08-10 20:11:00,82.0,75.2,29.89,ENE,68,0.0,5.0,80,0.00,,,0.00,Weather View 32 v70,2013-08-11 00:11:00,
2013-08-10 20:16:00,82.0,75.2,29.89,ENE,68,0.0,5.0,80,0.00,,,0.00,Weather View 32 v70,2013-08-11 00:16:00,
2013-08-10 20:21:00,81.0,74.2,29.89,North,0,1.0,5.0,80,0.00,,,0.00,Weather View 32 v70,2013-08-11 00:21:00,
2013-08-10 20:26:00,81.0,74.2,29.89,ENE,68,0.0,5.0,80,0.00,,,0.00,Weather View 32 v70,2013-08-11 00:26:00,
2013-08-10 20:31:00,81.0,74.2,29.89,ENE,68,0.0,5.0,80,0.00,,,0.00,Weather View 32 v70,2013-08-11 00:31:00,
2013-08-10 20:36:00,81.0,74.6,29.89,ENE,68,0.0,5.0,81,0.00,,,0.00,Weather View 32 v70,2013-08-11 00:36:00,
2013-08-10 20:41:00,81.0,75.0,29.88,ENE,68,0.0,5.0,82,0.00,,,0.00,Weather View 32 v70,2013-08-11 00:41:00,
2013-08-10 20:46:00,81.0,75.0,29.89,ENE,68,2.0,4.0,82,0.00,,,0.00,Weather View 32 v70,2013-08-11 00:46:00,
2013-08-10 20:51:00,81.0,75.0,29.89,ENE,68,0.0,3.0,82,0.00,,,0.00,Weather View 32 v70,2013-08-11 00:51:00,
2013-08-10 20:56:00,80.0,74.3,29.89,North,0,1.0,3.0,83,0.00,,,0.00,Weather View 32 v70,2013-08-11 00:56:00,
2013-08-10 21:01:00,80.0,74.3,29.89,ENE,68,0.0,3.0,83,0.00,,,0.00,Weather View 32 v70,2013-08-11 01:01:00,
2013-08-10 21:06:00,80.0,74.7,29.89,East,90,1.0,3.0,84,0.00,,,0.00,Weather View 32 v70,2013-08-11 01:06:00,
2013-08-10 21:11:00,80.0,74.7,29.90,East,90,0.0,3.0,84,0.00,,,0.00,Weather View 32 v70,2013-08-11 01:11:00,
2013-08-10 21:16:00,80.0,74.7,29.89,East,90,0.0,3.0,84,0.00,,,0.00,Weather View 32 v70,2013-08-11 01:16:00,
2013-08-10 21:21:00,80.0,74.7,29.89,East,90,0.0,3.0,84,0.00,,,0.00,Weather View 32 v70,2013-08-11 01:21:00,
2013-08-10 21:26:00,80.0,75.1,29.89,East,90,0.0,3.0,85,0.00,,,0.00,Weather View 32 v70,2013-08-11 01:26:00,
2013-08-10 21:31:00,80.0,75.1,29.89,East,90,0.0,3.0,85,0.00,,,0.00,Weather View 32 v70,2013-08-11 01:31:00,
2013-08-10 21:36:00,79.0,74.4,29.89,WSW,248,0.0,3.0,86,0.00,,,0.00,Weather View 32 v70,2013-08-11 01:36:00,
2013-08-10 21:41:00,79.0,74.4,29.90,South,180,0.0,3.0,86,0.00,,,0.00,Weather View 32 v70,2013-08-11 01:41:00,
2013-08-10 21:46:00,79.0,74.4,29.90,SSE,158,3.0,3.0,86,0.00,,,0.00,Weather View 32 v70,2013-08-11 01:46:00,
2013-08-10 21:51:00,79.0,74.8,29.90,WSW,248,1.0,5.0,87,0.00,,,0.00,Weather View 32 v70,2013-08-11 01:51:00,
2013-08-10 21:56:00,79.0,74.8,29.91,South,180,4.0,6.0,87,0.00,,,0.00,Weather View 32 v70,2013-08-11 01:56:00,
2013-08-10 22:01:00,79.0,75.1,29.91,NNW,338,2.0,6.0,88,0.00,,,0.00,Weather View 32 v70,2013-08-11 02:01:00,
2013-08-10 22:06:00,79.0,75.1,29.91,SSE,158,1.0,6.0,88,0.00,,,0.00,Weather View 32 v70,2013-08-11 02:06:00,
2013-08-10 22:11:00,79.0,75.1,29.90,South,180,1.0,6.0,88,0.00,,,0.00,Weather View 32 v70,2013-08-11 02:11:00,
2013-08-10 22:16:00,79.0,75.1,29.91,South,180,2.0,6.0,88,0.00,,,0.00,Weather View 32 v70,2013-08-11 02:16:00,
2013-08-10 22:21:00,79.0,75.5,29.91,South,180,0.0,6.0,89,0.00,,,0.00,Weather View 32 v70,2013-08-11 02:21:00,
2013-08-10 22:26:00,78.0,74.5,29.90,East,90,1.0,6.0,89,0.00,,,0.00,Weather View 32 v70,2013-08-11 02:26:00,
2013-08-10 22:31:00,78.0,74.8,29.90,SSE,158,0.0,6.0,90,0.00,,,0.00,Weather View 32 v70,2013-08-11 02:31:00,
2013-08-10 22:36:00,78.0,74.8,29.89,South,180,1.0,6.0,90,0.00,,,0.00,Weather View 32 v70,2013-08-11 02:36:00,
2013-08-10 22:41:00,78.0,75.1,29.89,SSE,158,0.0,6.0,91,0.00,,,0.00,Weather View 32 v70,2013-08-11 02:41:00,
2013-08-10 22:46:00,78.0,75.1,29.89,SSE,158,2.0,6.0,91,0.00,,,0.00,Weather View 32 v70,2013-08-11 02:46:00,
2013-08-10 22:51:00,78.0,75.1,29.89,SSE,158,3.0,6.0,91,0.00,,,0.00,Weather View 32 v70,2013-08-11 02:51:00,
2013-08-10 22:56:00,78.0,75.5,29.90,SSE,158,1.0,6.0,92,0.00,,,0.00,Weather View 32 v70,2013-08-11 02:56:00,
2013-08-10 23:02:00,78.0,75.5,29.90,SSE,158,0.0,6.0,92,0.00,,,0.00,Weather View 32 v70,2013-08-11 03:02:00,
2013-08-10 23:07:00,78.0,75.8,29.90,South,180,1.0,6.0,93,0.00,,,0.00,Weather View 32 v70,2013-08-11 03:07:00,
2013-08-10 23:12:00,78.0,75.8,29.90,South,180,0.0,6.0,93,0.00,,,0.00,Weather View 32 v70,2013-08-11 03:12:00,
2013-08-10 23:17:00,78.0,75.8,29.90,South,180,0.0,6.0,93,0.00,,,0.00,Weather View 32 v70,2013-08-11 03:17:00,
2013-08-10 23:22:00,77.0,75.1,29.90,South,180,0.0,6.0,94,0.00,,,0.00,Weather View 32 v70,2013-08-11 03:22:00,
2013-08-10 23:27:00,77.0,75.1,29.90,South,180,0.0,5.0,94,0.00,,,0.00,Weather View 32 v70,2013-08-11 03:27:00,
2013-08-10 23:32:00,77.0,75.1,29.90,South,180,0.0,5.0,94,0.00,,,0.00,Weather View 32 v70,2013-08-11 03:32:00,
2013-08-10 23:38:00,77.0,75.4,29.90,South,180,0.0,5.0,95,0.00,,,0.00,Weather View 32 v70,2013-08-11 03:38:00,
2013-08-10 23:43:00,77.0,75.4,29.90,South,180,0.0,5.0,95,0.00,,,0.00,Weather View 32 v70,2013-08-11 03:43:00,
2013-08-10 23:48:00,77.0,75.4,29.90,South,180,0.0,5.0,95,0.00,,,0.00,Weather View 32 v70,2013-08-11 03:48:00,
2013-08-10 23:53:00,77.0,75.8,29.90,South,180,0.0,5.0,96,0.00,,,0.00,Weather View 32 v70,2013-08-11 03:53:00,
2013-08-10 23:58:00,77.0,75.8,29.91,South,180,0.0,3.0,96,0.00,,,0.00,Weather View 32 v70,2013-08-11 03:58:00,